Weather in Kypuche

Ukraine / Luhansk Region     48˚26′22″N   38˚43′29″E
temp.,
°C
wind,
m/s
gust,
m/s
humid.,
%
clouds,
%
prec.,
mm/h
press.,
hPa
HPBL,
m
2 december, wed
wed223:00−3˚ese6128090 0.0 1030590
02:00−2˚ese6108394 0.0 1030560
05:00−3˚e61088100 0.0 1030437
08:00−3˚e71188100 0.1 1030433
11:00−3˚e71084100 0.0 1031484
14:00−1˚e7118293 0.0 1030539
17:00−1˚ese71186100 0.0 1030594
20:00−1˚ese61186100 0.0 1030589
3 december, thu
thu323:00−1˚ese6108699 0.0 1031542
02:00−2˚ese61089100 0.0 1031417
05:00−2˚ese61190100 0.1 1030495
08:00−1˚ese61092100 0.8 1031523
11:00se61089100 0.1 1030616
14:00ese5997100 0.1 1030405
17:00ese61195100 0.8 1030452
20:00ese6994100 1.1 1030428
4 december, fri
fri423:00−1˚ese5892100 0.1 1030416
02:00−1˚ese5892100 0.3 1029352
05:00−2˚ese5891100 0.1 1029349
08:00−1˚ese5891100 0.1 1030374
11:00ese6990100 0.0 1030421
14:00ese6988100 0.0 1029487
17:00−1˚ese61090100 0.0 1030486
20:00−1˚ese61186100 0.0 1031503
5 december, sat
sat523:00−1˚ese5983100 0.0 1031506
02:00−2˚e6108399 0.0 1031477
05:00−3˚e61081100 0.0 1031449
08:00−4˚e6108095 0.0 1032415
11:00−3˚e6107347 0.0 1032439
14:00−2˚e7116624 0.0 1032536
17:00−4˚e613710 0.0 1033473
20:00−5˚e612700 0.0 1034437
6 december, sun
sun623:00−6˚e611710 0.0 1033400
02:00−7˚e612720 0.0 1034357
05:00−8˚e611730 0.0 1033357
08:00−8˚e611720 0.0 1034361
11:00−6˚e610630 0.0 1033423
14:00−5˚e710620 0.0 1032503
17:00−7˚e612700 0.0 1033471
20:00−8˚e613710 0.0 1033480